DLH4MW EDDF-EDDM

Flight info

Callsign DLH4MW
Flight time 0h 38m
Altitude 23000
Route CINDY8S/18 CINDY Z74 HAREM T104 ROKIL
Aircraft B789/H-SDE1E2E3FGHIJ2J3J4J5M1RWXY/LB1D1

Departure

Time 2026-05-06 15:06
Airport Frankfurt Main Airport (EDDF)

Arrival

Time 2026-05-06 15:45
Airport Munich Airport (EDDM)
Time Latitude Longitude Altitude Speed Heading
2026-05-06 14:36 50.04775 8.56496 366 ft 0 kts 340°
2026-05-06 14:49 50.04770 8.56499 369 ft 4 kts 339°
2026-05-06 14:49 50.04745 8.56514 366 ft 4 kts 338°
2026-05-06 14:49 50.04720 8.56529 363 ft 4 kts 342°
2026-05-06 14:50 50.04694 8.56537 364 ft 4 kts
2026-05-06 14:50 50.04674 8.56527 361 ft 4 kts 25°
2026-05-06 14:50 50.04650 8.56510 365 ft 4 kts 22°
2026-05-06 14:50 50.04633 8.56500 365 ft 3 kts 24°
2026-05-06 14:51 50.04656 8.56504 368 ft 4 kts 354°
2026-05-06 14:51 50.04674 8.56481 363 ft 4 kts 304°
2026-05-06 14:51 50.04679 8.56446 366 ft 4 kts 261°
2026-05-06 14:51 50.04669 8.56419 368 ft 4 kts 226°
2026-05-06 14:52 50.04660 8.56410 367 ft 4 kts 229°
2026-05-06 14:52 50.04656 8.56394 366 ft 0 kts 250°
2026-05-06 14:56 50.04656 8.56393 361 ft 1 kts 250°
2026-05-06 14:56 50.04648 8.56358 368 ft 6 kts 250°
2026-05-06 14:56 50.04633 8.56291 364 ft 8 kts 250°
2026-05-06 14:57 50.04609 8.56195 366 ft 7 kts 249°
2026-05-06 14:57 50.04590 8.56115 365 ft 10 kts 249°
2026-05-06 14:57 50.04565 8.56015 364 ft 9 kts 243°
2026-05-06 14:57 50.04522 8.55956 368 ft 8 kts 203°
2026-05-06 14:58 50.04466 8.55928 366 ft 9 kts 198°
2026-05-06 14:58 50.04403 8.55909 367 ft 10 kts 182°
2026-05-06 14:58 50.04331 8.55936 365 ft 12 kts 161°
2026-05-06 14:58 50.04252 8.55937 363 ft 11 kts 213°
2026-05-06 14:59 50.04214 8.55838 363 ft 13 kts 250°
2026-05-06 14:59 50.04174 8.55665 367 ft 18 kts 250°
2026-05-06 14:59 50.04129 8.55481 358 ft 18 kts 250°
2026-05-06 14:59 50.04087 8.55303 365 ft 17 kts 250°
2026-05-06 15:00 50.04047 8.55136 361 ft 16 kts 249°
2026-05-06 15:00 50.04008 8.54974 365 ft 16 kts 250°
2026-05-06 15:00 50.03967 8.54801 364 ft 18 kts 249°
2026-05-06 15:00 50.03922 8.54614 361 ft 19 kts 250°
2026-05-06 15:01 50.03879 8.54432 362 ft 15 kts 249°
2026-05-06 15:01 50.03824 8.54291 359 ft 16 kts 235°
2026-05-06 15:01 50.03779 8.54136 357 ft 16 kts 250°
2026-05-06 15:01 50.03740 8.53970 354 ft 17 kts 249°
2026-05-06 15:02 50.03699 8.53801 353 ft 17 kts 249°
2026-05-06 15:02 50.03656 8.53626 350 ft 18 kts 248°
2026-05-06 15:02 50.03610 8.53446 351 ft 18 kts 249°
2026-05-06 15:02 50.03568 8.53269 354 ft 16 kts 250°
2026-05-06 15:03 50.03529 8.53104 353 ft 16 kts 249°
2026-05-06 15:03 50.03489 8.52938 349 ft 16 kts 248°
2026-05-06 15:03 50.03451 8.52798 347 ft 14 kts 248°
2026-05-06 15:03 50.03436 8.52739 348 ft 0 kts 249°
2026-05-06 15:04 50.03430 8.52715 337 ft 5 kts 249°
2026-05-06 15:04 50.03422 8.52682 339 ft 3 kts 249°
2026-05-06 15:05 50.03404 8.52633 335 ft 5 kts 229°
2026-05-06 15:05 50.03380 8.52611 338 ft 4 kts 207°
2026-05-06 15:05 50.03322 8.52594 339 ft 10 kts 184°
2026-05-06 15:05 50.03246 8.52595 338 ft 15 kts 179°
2026-05-06 15:06 50.02970 8.52598 341 ft 71 kts 180°
2026-05-06 15:06 50.02262 8.52610 339 ft 132 kts 180°
2026-05-06 15:06 50.01159 8.52618 367 ft 182 kts 180°
2026-05-06 15:06 49.99891 8.52749 1050 ft 183 kts 177°
2026-05-06 15:07 49.98642 8.52748 2047 ft 179 kts 188°
2026-05-06 15:07 49.97300 8.52707 2390 ft 211 kts 174°
2026-05-06 15:07 49.96002 8.54036 2877 ft 238 kts 128°
2026-05-06 15:07 49.95208 8.56287 3991 ft 237 kts 118°
2026-05-06 15:08 49.94494 8.58616 5034 ft 241 kts 117°
2026-05-06 15:08 49.94017 8.61160 5849 ft 258 kts 96°
2026-05-06 15:08 49.93941 8.64088 6353 ft 283 kts 95°
2026-05-06 15:08 49.93795 8.67131 7378 ft 282 kts 101°
2026-05-06 15:09 49.93022 8.69904 8278 ft 282 kts 129°
2026-05-06 15:09 49.91585 8.71921 9210 ft 280 kts 148°
2026-05-06 15:09 49.89995 8.73677 10016 ft 287 kts 147°
2026-05-06 15:09 49.88419 8.75716 10277 ft 316 kts 129°
2026-05-06 15:10 49.87246 8.78832 10468 ft 344 kts 121°
2026-05-06 15:10 49.86042 8.82133 11074 ft 353 kts 121°
2026-05-06 15:10 49.84831 8.85461 11911 ft 357 kts 121°
2026-05-06 15:10 49.83606 8.88844 12703 ft 362 kts 121°
2026-05-06 15:11 49.82366 8.92268 13489 ft 366 kts 121°
2026-05-06 15:11 49.81110 8.95725 14208 ft 370 kts 121°
2026-05-06 15:11 49.79842 8.99203 14895 ft 373 kts 121°
2026-05-06 15:11 49.78561 9.02719 15600 ft 376 kts 121°
2026-05-06 15:12 49.77286 9.06211 16276 ft 380 kts 121°
2026-05-06 15:12 49.76111 9.09894 16877 ft 386 kts 109°
2026-05-06 15:12 49.75459 9.13945 17454 ft 390 kts 106°
2026-05-06 15:12 49.74654 9.17954 18075 ft 390 kts 118°
2026-05-06 15:13 49.73172 9.21442 18622 ft 389 kts 133°
2026-05-06 15:13 49.71393 9.24623 19119 ft 392 kts 133°
2026-05-06 15:13 49.69578 9.27794 19657 ft 394 kts 134°
2026-05-06 15:13 49.67767 9.30968 20349 ft 392 kts 133°
2026-05-06 15:14 49.65980 9.34136 21007 ft 390 kts 133°
2026-05-06 15:14 49.64199 9.37289 21649 ft 389 kts 133°
2026-05-06 15:14 49.62417 9.40421 22291 ft 388 kts 134°
2026-05-06 15:14 49.60637 9.43543 22779 ft 391 kts 134°
2026-05-06 15:15 49.58826 9.46728 22772 ft 394 kts 134°
2026-05-06 15:15 49.57034 9.49889 22784 ft 389 kts 134°
2026-05-06 15:15 49.55253 9.53015 22780 ft 389 kts 134°
2026-05-06 15:15 49.53468 9.56138 22781 ft 388 kts 134°
2026-05-06 15:16 49.51709 9.59217 22783 ft 388 kts 134°
2026-05-06 15:16 49.49923 9.62342 22794 ft 389 kts 134°
2026-05-06 15:16 49.48138 9.65461 22789 ft 388 kts 134°
2026-05-06 15:16 49.46345 9.68587 22793 ft 389 kts 134°
2026-05-06 15:17 49.44554 9.71708 22790 ft 389 kts 134°
2026-05-06 15:17 49.42765 9.74823 22800 ft 389 kts 134°
2026-05-06 15:17 49.40966 9.77950 22795 ft 389 kts 134°
2026-05-06 15:17 49.39173 9.81062 22799 ft 389 kts 134°
2026-05-06 15:18 49.37376 9.84178 22797 ft 389 kts 134°
2026-05-06 15:18 49.35579 9.87283 22794 ft 389 kts 134°
2026-05-06 15:18 49.33778 9.90388 22797 ft 389 kts 134°
2026-05-06 15:18 49.32005 9.93445 22796 ft 389 kts 135°
2026-05-06 15:19 49.30207 9.96541 22797 ft 389 kts 135°
2026-05-06 15:19 49.28406 9.99638 22796 ft 389 kts 135°
2026-05-06 15:19 49.26608 10.02728 22797 ft 389 kts 135°
2026-05-06 15:19 49.24807 10.05817 22794 ft 389 kts 135°
2026-05-06 15:20 49.23004 10.08907 22797 ft 389 kts 135°
2026-05-06 15:20 49.21199 10.11997 22790 ft 389 kts 135°
2026-05-06 15:20 49.19391 10.15088 22789 ft 389 kts 135°
2026-05-06 15:20 49.17581 10.18182 22796 ft 390 kts 135°
2026-05-06 15:21 49.15775 10.21270 22796 ft 390 kts 135°
2026-05-06 15:21 49.13961 10.24334 22792 ft 388 kts 138°
2026-05-06 15:21 49.12073 10.27287 22805 ft 389 kts 136°
2026-05-06 15:21 49.10241 10.30324 22805 ft 389 kts 136°
2026-05-06 15:22 49.08396 10.33347 22804 ft 389 kts 137°
2026-05-06 15:22 49.06527 10.36322 22806 ft 389 kts 137°
2026-05-06 15:22 49.04654 10.39301 22799 ft 388 kts 137°
2026-05-06 15:22 49.02797 10.42290 22775 ft 387 kts 136°
2026-05-06 15:23 49.00966 10.45238 22799 ft 387 kts 137°
2026-05-06 15:23 48.99109 10.48204 22796 ft 387 kts 137°
2026-05-06 15:23 48.97246 10.51164 22796 ft 387 kts 137°
2026-05-06 15:23 48.95384 10.54128 22794 ft 387 kts 137°
2026-05-06 15:24 48.93521 10.57098 22791 ft 387 kts 137°
2026-05-06 15:24 48.91663 10.60056 22790 ft 387 kts 137°
2026-05-06 15:24 48.89799 10.63018 22791 ft 387 kts 137°
2026-05-06 15:24 48.87938 10.65970 22787 ft 387 kts 137°
2026-05-06 15:25 48.86071 10.68929 22782 ft 387 kts 137°
2026-05-06 15:25 48.84221 10.71860 22259 ft 382 kts 137°
2026-05-06 15:25 48.82412 10.74724 21711 ft 378 kts 137°
2026-05-06 15:25 48.80590 10.77600 21162 ft 379 kts 137°
2026-05-06 15:26 48.78747 10.80495 20586 ft 382 kts 138°
2026-05-06 15:26 48.76894 10.83398 20026 ft 385 kts 138°
2026-05-06 15:26 48.75033 10.86317 19420 ft 384 kts 138°
2026-05-06 15:26 48.73191 10.89209 18901 ft 377 kts 138°
2026-05-06 15:27 48.71448 10.92106 18677 ft 365 kts 130°
2026-05-06 15:27 48.70023 10.95162 18661 ft 344 kts 130°
2026-05-06 15:27 48.68652 10.98018 18628 ft 326 kts 131°
2026-05-06 15:27 48.67363 11.00731 18572 ft 309 kts 131°
2026-05-06 15:28 48.66148 11.03321 18519 ft 294 kts 131°
2026-05-06 15:28 48.64990 11.05779 18463 ft 283 kts 131°
2026-05-06 15:28 48.63834 11.08204 18422 ft 286 kts 131°
2026-05-06 15:28 48.62662 11.10668 18406 ft 291 kts 131°
2026-05-06 15:29 48.61506 11.13118 18390 ft 286 kts 131°
2026-05-06 15:29 48.60359 11.15547 18371 ft 283 kts 132°
2026-05-06 15:29 48.59234 11.17905 18247 ft 291 kts 132°
2026-05-06 15:29 48.58026 11.20441 18031 ft 294 kts 131°
2026-05-06 15:30 48.56842 11.22940 17759 ft 291 kts 131°
2026-05-06 15:30 48.55663 11.25421 17320 ft 291 kts 131°
2026-05-06 15:30 48.54486 11.27891 16897 ft 288 kts 131°
2026-05-06 15:30 48.53319 11.30337 16476 ft 286 kts 131°
2026-05-06 15:31 48.52159 11.32767 16058 ft 284 kts 131°
2026-05-06 15:31 48.51008 11.35176 15645 ft 282 kts 131°
2026-05-06 15:31 48.49866 11.37564 15236 ft 280 kts 131°
2026-05-06 15:32 48.47602 11.42293 14448 ft 277 kts 131°
2026-05-06 15:32 48.46470 11.44655 14056 ft 277 kts 131°
2026-05-06 15:32 48.45350 11.46985 13575 ft 279 kts 131°
2026-05-06 15:32 48.44211 11.49356 13070 ft 280 kts 130°
2026-05-06 15:33 48.43276 11.51935 12545 ft 286 kts 108°
2026-05-06 15:33 48.43102 11.54929 12047 ft 291 kts 86°
2026-05-06 15:33 48.43354 11.57944 11573 ft 290 kts 86°
2026-05-06 15:33 48.43588 11.60959 11092 ft 289 kts 86°
2026-05-06 15:34 48.43821 11.63961 10621 ft 288 kts 86°
2026-05-06 15:34 48.44055 11.66955 10167 ft 287 kts 85°
2026-05-06 15:34 48.44286 11.69930 9687 ft 285 kts 86°
2026-05-06 15:34 48.44514 11.72872 9280 ft 280 kts 85°
2026-05-06 15:35 48.44736 11.75757 8866 ft 275 kts 85°
2026-05-06 15:35 48.44955 11.78604 8454 ft 271 kts 85°
2026-05-06 15:35 48.45169 11.81408 8049 ft 268 kts 85°
2026-05-06 15:35 48.45379 11.84157 7797 ft 260 kts 85°
2026-05-06 15:36 48.45587 11.86884 7448 ft 262 kts 85°
2026-05-06 15:36 48.45793 11.89597 7123 ft 259 kts 85°
2026-05-06 15:36 48.45996 11.92279 6786 ft 255 kts 85°
2026-05-06 15:36 48.46195 11.94913 6468 ft 250 kts 85°
2026-05-06 15:37 48.46387 11.97491 6141 ft 246 kts 85°
2026-05-06 15:37 48.46514 11.99179 5913 ft 243 kts 85°
2026-05-06 15:37 48.46701 12.01675 5717 ft 237 kts 85°
2026-05-06 15:37 48.46945 12.04953 5542 ft 237 kts 84°
2026-05-06 15:38 48.47066 12.06589 5441 ft 236 kts 84°
2026-05-06 15:38 48.47249 12.09055 5315 ft 237 kts 84°
2026-05-06 15:38 48.47433 12.11550 5191 ft 247 kts 84°
2026-05-06 15:38 48.47618 12.14180 5088 ft 253 kts 87°
2026-05-06 15:39 48.47224 12.16680 4946 ft 242 kts 125°
2026-05-06 15:39 48.45400 12.18365 4754 ft 239 kts 167°
2026-05-06 15:39 48.44300 12.18628 4595 ft 236 kts 172°
2026-05-06 15:39 48.42692 12.18343 4296 ft 239 kts 207°
2026-05-06 15:40 48.41487 12.16702 4112 ft 236 kts 230°
2026-05-06 15:40 48.40507 12.14700 3973 ft 234 kts 234°
2026-05-06 15:40 48.39630 12.12738 3969 ft 223 kts 237°
2026-05-06 15:40 48.38971 12.10654 3956 ft 219 kts 253°
2026-05-06 15:41 48.38702 12.08408 3971 ft 217 kts 262°
2026-05-06 15:41 48.38529 12.06230 3971 ft 203 kts 263°
2026-05-06 15:41 48.38370 12.04140 3964 ft 199 kts 263°
2026-05-06 15:41 48.38211 12.02078 3982 ft 197 kts 263°
2026-05-06 15:42 48.38052 12.00015 3865 ft 199 kts 263°
2026-05-06 15:42 48.37895 11.97962 3611 ft 194 kts 264°
2026-05-06 15:42 48.37747 11.96027 3353 ft 174 kts 264°
2026-05-06 15:42 48.37616 11.94336 3136 ft 156 kts 264°
2026-05-06 15:43 48.37499 11.92743 2938 ft 151 kts 265°
2026-05-06 15:43 48.37385 11.91202 2761 ft 149 kts 262°
2026-05-06 15:43 48.37259 11.89661 2553 ft 148 kts 263°
2026-05-06 15:43 48.37138 11.88138 2374 ft 145 kts 264°
2026-05-06 15:44 48.37030 11.86650 2140 ft 140 kts 266°
2026-05-06 15:44 48.36923 11.85213 1950 ft 138 kts 265°
2026-05-06 15:44 48.36810 11.83760 1785 ft 140 kts 265°
2026-05-06 15:44 48.36704 11.82311 1583 ft 139 kts 265°
2026-05-06 15:45 48.36599 11.80925 1481 ft 115 kts 263°
2026-05-06 15:45 48.36532 11.80072 1491 ft 52 kts 263°
2026-05-06 15:45 48.36464 11.79736 1475 ft 17 kts 238°
2026-05-06 15:45 48.36401 11.79599 1487 ft 14 kts 232°
2026-05-06 15:46 48.36343 11.79483 1477 ft 14 kts 233°
2026-05-06 15:46 48.36283 11.79364 1477 ft 14 kts 232°
2026-05-06 15:46 48.36231 11.79306 1482 ft 6 kts 199°
2026-05-06 15:46 48.36220 11.79302 1481 ft 0 kts 192°